Vorticity
11 5 11 7 9 7 6 7 8 8 9 10 9 8 9 9 11 10 5 10 10 11 12 14 11 13 9 6 6 12 1 7 4 15 1 7 12 6 8 0 9 4 2 3 9
-2 11 6 13 8 9 6 6 7 8 9 10 10 9 9 9 6 8 7 8 7 7 10 9 7 12 11 12 9 2 9 16 7 -1 -2 3 11 -1 16 7 7 8 8 9 5
23 -6 7 6 12 10 7 8 5 8 9 9 10 10 10 8 7 7 10 13 13 10 13 5 4 6 7 8 10 14 -6 1 7 7 6 1 6 8 5 -3 11 4 7 7 3
11 4 1 5 5 7 6 8 6 7 8 9 9 9 9 10 4 28 11 5 -0 5 5 8 4 3 4 6 6 3 9 -6 -2 12 7 5 6 8 13 5 8 9 8 3 4
21 15 6 -2 5 8 5 3 10 6 8 9 9 8 8 8 8 -1 25 24 17 18 3 4 11 9 3 8 5 4 6 6 5 5 6 6 4 4 8 7 11 6 4 7 3
13 15 13 4 -3 6 6 7 8 6 9 8 8 8 8 10 9 12 -7 -9 -8 -0 19 26 1 4 5 14 -3 6 14 12 9 7 5 6 7 6 11 7 5 8 6 2 5
15 18 7 6 4 10 9 7 7 9 9 8 7 7 6 4 12 13 13 13 10 10 7 3 10 16 23 13 17 10 13 13 11 9 9 8 11 7 14 16 14 10 10 11 -1
10 22 23 18 16 -8 6 6 9 2 9 8 7 6 9 9 3 3 11 12 12 11 15 18 11 7 5 3 1 5 12 14 17 15 18 22 5 -11 2 14 28 19 12 15 16
16 7 25 19 20 4 16 6 3 8 10 17 11 6 5 9 3 5 6 7 7 5 5 -0 3 2 5 3 12 24 -0 7 10 7 2 5 8 12 15 15 20 8 7 23 16
24 12 32 22 20 10 -2 6 5 -0 5 -4 7 8 -8 24 7 11 8 4 5 7 6 5 6 6 8 10 -1 20 10 15 3 10 9 5 -1 -0 5 4 0 1 10 17 9
23 19 18 25 25 14 5 3 8 14 -0 12 6 15 11 6 -3 24 9 8 12 8 12 12 5 -2 15 13 -3 -11 -2 -3 -4 3 4 10 8 9 7 4 4 10 11 5 11
27 8 20 21 43 4 23 57 3 -17 22 13 5 -6 26 -7 15 6 -0 5 10 11 4 5 -1 9 8 3 6 4 3 7 14 29 20 12 10 -1 5 11 11 10 9 9 10
15 19 25 1 24 12 -31 35 7 1 -10 10 18 7 -4 2 1 7 10 3 3 3 8 6 -3 15 30 19 12 10 8 6 -0 2 14 28 41 68 30 18 26 27 23 21 13
8 14 12 1 7 53 -14 34 0 -0 -5 28 12 20 14 5 6 2 1 -1 9 12 8 16 16 0 3 5 7 5 16 16 16 12 3 -7 -11 6 10 17 9 7 14 18 29
13 10 15 10 7 31 4 49 15 15 4 26 18 0 4 5 2 25 8 12 2 1 4 -2 6 23 18 19 18 -1 6 11 6 9 15 37 3 -12 -8 8 20 25 32 24 32
5 -7 4 20 6 23 21 -24 35 -30 25 3 31 21 19 13 1 4 23 18 15 10 5 -1 -9 -12 1 12 22 5 13 10 10 7 32 44 -16 2 25 37 34 8 -13 -7 -27
-4 23 -2 20 19 23 28 41 -25 -7 21 27 20 13 15 14 12 10 7 1 -1 8 15 19 15 12 10 16 15 4 6 13 15 12 -1 5 28 -46 -38 -23 -19 -14 11 4 19
-17 27 42 24 21 15 27 38 -13 24 -4 25 43 11 8 20 8 6 11 9 0 -10 3 5 17 31 32 18 0 26 6 -18 13 -1 -17 20 12 -19 7 -6 12 -12 -8 18 23
44 33 28 21 9 32 36 8 18 19 -1 14 7 -7 8 1 11 11 16 5 12 -0 -12 13 13 9 7 2 3 26 17 15 -20 9 21 -3 -5 -5 48 42 50 39 31 2 3
12 31 22 20 28 11 17 -39 11 6 9 11 -6 -8 15 10 5 -8 5 34 9 20 14 11 2 21 20 1 4 -22 16 6 11 12 10 16 -6 -30 -28 -4 2 1 6 8 16
35 15 15 38 8 20 1 5 15 1 17 -20 19 21 27 8 -0 2 23 17 11 22 9 11 1 3 10 23 20 29 -8 -3 0 -9 -4 10 -6 10 3 12 18 15 27 -11 -4
18 41 27 5 -8 36 -7 14 14 15 9 1 6 25 13 15 2 -3 5 -4 14 2 9 9 9 7 -15 4 8 1 6 16 -30 20 16 -1 -10 5 11 23 15 2 5 -13 1
40 18 39 9 8 -8 22 9 3 6 15 8 7 12 13 8 8 1 9 24 1 5 6 14 12 11 29 21 29 8 8 19 9 6 -3 -23 -29 -21 13 15 17 8 39 4 4
14 51 5 24 11 -12 27 5 -2 -2 -6 -3 7 3 5 5 -4 8 4 7 20 20 4 -8 6 -15 -35 -31 -32 -12 -0 19 29 -7 2 -1 -3 14 -9 -13 -7 10 6 23 -5
36 75 16 20 18 4 -3 12 5 8 4 9 9 5 3 4 7 4 11 3 9 5 8 13 0 11 6 2 4 25 11 15 50 7 -2 -9 6 -1 17 8 24 -9 20 -2 20
8 37 -17 22 10 5 -3 25 20 -2 -9 6 -5 7 2 14 7 0 7 8 15 29 10 11 0 -2 -4 34 16 6 35 11 40 43 34 39 18 27 28 36 32 19 11 17 30
6 24 22 3 12 14 5 -2 7 -4 7 -3 9 17 5 11 11 20 6 5 -5 7 18 1 3 -3 16 1 31 53 -5 21 22 25 25 26 30 2 28 15 7 7 23 22 25
Height
3078 3077 3076 3075 3075 3075 3075 3076 3076 3075 3075 3076 3076 3077 3078 3079 3081 3081 3085 3087 3087 3091 3094 3096 3098 3101 3102 3105 3108 3112 3115 3114 3115 3117 3119 3118 3122 3124 3125 3127 3128 3131 3132 3134 3135
3073 3072 3071 3072 3071 3070 3070 3070 3071 3071 3071 3071 3073 3073 3074 3076 3078 3078 3082 3082 3084 3087 3091 3094 3095 3097 3098 3100 3102 3106 3109 3109 3111 3112 3113 3114 3116 3119 3121 3122 3125 3127 3128 3129 3131
3066 3066 3066 3065 3065 3065 3064 3065 3065 3066 3066 3067 3068 3069 3071 3072 3075 3075 3077 3079 3082 3084 3086 3090 3092 3094 3094 3096 3097 3099 3102 3107 3103 3105 3107 3108 3111 3113 3116 3116 3120 3123 3123 3124 3126
3058 3058 3059 3059 3059 3059 3059 3060 3060 3061 3061 3063 3064 3065 3066 3068 3073 3070 3072 3075 3078 3080 3082 3085 3088 3089 3090 3093 3093 3095 3098 3098 3098 3100 3101 3103 3104 3105 3107 3111 3112 3114 3116 3119 3121
3049 3049 3050 3052 3052 3053 3053 3054 3054 3056 3057 3058 3059 3060 3062 3064 3066 3068 3069 3070 3072 3074 3077 3081 3083 3085 3087 3088 3089 3091 3093 3093 3093 3094 3095 3096 3096 3098 3097 3103 3106 3109 3110 3112 3115
3040 3039 3041 3042 3044 3046 3047 3047 3049 3049 3052 3053 3055 3056 3058 3061 3062 3064 3068 3069 3069 3072 3074 3076 3079 3081 3082 3083 3085 3085 3087 3088 3088 3089 3087 3088 3089 3089 3091 3099 3096 3099 3102 3105 3108
3029 3028 3029 3033 3036 3038 3040 3041 3043 3044 3046 3048 3049 3051 3053 3056 3057 3059 3063 3065 3066 3068 3071 3073 3075 3077 3079 3080 3080 3083 3083 3083 3083 3084 3082 3083 3079 3076 3086 3088 3088 3090 3094 3097 3099
3018 3017 3018 3021 3025 3029 3032 3035 3037 3039 3039 3042 3044 3046 3049 3051 3053 3055 3059 3060 3062 3064 3067 3069 3071 3073 3075 3076 3077 3079 3079 3079 3078 3078 3078 3078 3070 3075 3078 3078 3078 3081 3083 3086 3090
3008 3005 3006 3009 3013 3019 3022 3028 3030 3031 3034 3036 3040 3042 3044 3045 3048 3051 3055 3057 3058 3061 3063 3065 3067 3069 3073 3074 3075 3074 3075 3074 3074 3073 3073 3071 3067 3068 3071 3071 3070 3073 3074 3074 3078
2998 2995 2994 2997 3002 3008 3014 3020 3023 3024 3027 3031 3033 3040 3038 3040 3044 3047 3050 3053 3054 3057 3060 3062 3063 3065 3068 3069 3071 3071 3071 3071 3071 3070 3068 3064 3058 3061 3063 3064 3062 3062 3064 3066 3068
2987 2985 2985 2986 2991 2999 3007 3010 3010 3014 3017 3025 3029 3031 3034 3036 3038 3041 3045 3048 3051 3054 3055 3056 3059 3060 3064 3066 3067 3067 3068 3067 3067 3065 3062 3056 3050 3052 3053 3051 3051 3053 3054 3056 3059
2980 2978 2977 2978 2980 2989 2993 2990 2999 3010 3017 3021 3024 3027 3030 3033 3035 3037 3042 3045 3047 3049 3051 3055 3053 3057 3059 3061 3062 3064 3063 3063 3061 3060 3057 3051 3034 3042 3042 3040 3042 3043 3044 3045 3048
2974 2974 2972 2972 2973 2978 2982 2982 2999 3005 3012 3015 3019 3023 3028 3031 3032 3034 3038 3041 3045 3045 3048 3049 3051 3052 3054 3057 3058 3059 3059 3060 3059 3057 3052 3047 3025 3029 3026 3028 3031 3032 3032 3034 3036
2969 2969 2968 2968 2970 2969 2974 2980 2987 2998 3005 3009 3012 3016 3020 3025 3030 3032 3035 3039 3040 3042 3044 3046 3047 3048 3051 3053 3056 3056 3054 3054 3054 3055 3053 3048 3028 3022 3021 3021 3020 3022 3023 3024 3026
2964 2963 2963 2963 2962 2965 2969 2973 2982 2992 2997 3001 3002 3006 3012 3021 3023 3024 3030 3032 3034 3038 3042 3043 3042 3044 3046 3048 3051 3051 3049 3051 3052 3051 3047 3043 3045 3003 3012 3008 3010 3011 3011 3012 3013
2959 2957 2956 2958 2955 2962 2963 2971 2976 2986 2985 2990 2993 2999 3006 3012 3018 3020 3024 3028 3032 3034 3036 3039 3040 3041 3043 3045 3046 3047 3047 3048 3049 3048 3039 3030 3034 2996 3006 3004 3004 3005 3006 3007 3007
2951 2948 2948 2949 2950 2956 2963 2968 2975 2972 2981 2986 2989 2995 3002 3006 3013 3017 3020 3023 3028 3032 3033 3035 3035 3036 3038 3041 3042 3043 3045 3045 3043 3042 3026 3023 3022 2991 2998 2997 2998 2999 3000 3000 2998
2941 2936 2934 2937 2945 2952 2958 2967 2967 2970 2977 2981 2987 2995 3001 3005 3011 3014 3018 3021 3024 3027 3030 3033 3033 3032 3032 3033 3037 3036 3041 3039 3032 3026 3018 3019 3004 2989 2991 2987 2988 2990 2991 2991 2990
2931 2930 2932 2937 2943 2951 2959 2963 2963 2968 2973 2978 2989 2994 2998 3003 3008 3011 3015 3018 3020 3023 3028 3029 3029 3028 3029 3030 3033 3034 3034 3037 3035 3030 3023 3007 2993 2984 2986 2984 2982 2982 2981 2981 2982
2932 2931 2933 2937 2941 2948 2958 2962 2964 2969 2973 2979 2983 2990 2994 2999 3004 3008 3012 3014 3017 3019 3024 3026 3027 3024 3025 3026 3027 3028 3031 3032 3032 3025 3007 2991 2985 2981 2981 2982 2980 2978 2976 2975 2975
2933 2934 2934 2936 2942 2949 2954 2964 2965 2971 2976 2980 2981 2985 2991 2994 3001 3005 3010 3013 3014 3016 3020 3022 3025 3023 3020 3018 3017 3022 3022 3023 3023 3018 3004 2991 2969 2976 2976 2976 2975 2971 2970 2968 2967
2931 2932 2935 2940 2946 2952 2957 2961 2965 2969 2975 2979 2983 2986 2990 2995 2999 3004 3007 3010 3011 3014 3016 3018 3020 3016 3012 3013 3014 3014 3013 3014 3013 3003 2997 2992 2956 2971 2969 2969 2968 2967 2966 2965 2962
2933 2931 2935 2942 2947 2953 2959 2962 2965 2971 2976 2981 2983 2988 2991 2995 3001 3003 3005 3008 3009 3012 3014 3015 3015 3013 3007 3009 3007 3005 3003 3003 2997 2996 2980 2985 2961 2962 2963 2963 2963 2961 2960 2959 2957
2933 2934 2939 2942 2950 2954 2957 2962 2967 2973 2978 2982 2984 2988 2992 2995 2998 3000 3003 3005 3007 3009 3010 3012 3009 3007 3002 3000 3005 2999 2994 2990 2988 2984 2969 2965 2955 2960 2962 2960 2958 2956 2953 2952 2950
2934 2936 2940 2946 2951 2957 2960 2967 2970 2973 2979 2982 2985 2989 2992 2995 2997 2999 3001 3002 3004 3005 3006 3007 3003 3001 2997 2995 2994 2989 2981 2976 2974 2967 2967 2946 2956 2953 2953 2949 2948 2947 2946 2945 2941
2937 2943 2946 2952 2955 2959 2964 2967 2971 2976 2979 2982 2986 2989 2991 2994 2996 2997 2998 2999 3001 3002 3003 3002 3000 2997 2990 2989 2986 2979 2975 2969 2962 2956 2953 2951 2947 2947 2946 2942 2940 2939 2937 2935 2935
2942 2944 2946 2948 2952 2958 2961 2966 2970 2975 2980 2983 2985 2987 2990 2992 2992 2993 2995 2996 2997 2998 2998 2999 2998 2997 2986 2986 2980 2975 2971 2965 2958 2953 2950 2947 2944 2943 2942 2940 2937 2935 2932 2933 2935